Location: McCall
(45.0000°N, 116.0000°W)
Time: 13:38:58
(UTC-07:00)

Amateur Radio Satellites - All Passes

Search period start: 20 November 2014 13:08
Search period end: 21 November 2014 13:08
Location: McCall, 45.0000°N, 116.0000°W

Satellite Date Start Highest point End Downlink Frequencies (MHz)
Time Altitude Azimuth
CUBEBUG 1 20 Nov 13:12:35 13:16:04 23° 295° (WNW) 13:19:30 437.445
SWISSCUBE 20 Nov 13:18:42 13:22:24 22° 93° (E) 13:26:04 437.505
SPROUT 20 Nov 13:25:13 13:29:29 64° 286° (WNW) 13:33:42 437.525
ESTCUBE 1 20 Nov 13:26:48 13:29:54 18° 298° (WNW) 13:32:59 437.505/2401.250
TISAT 1 20 Nov 13:35:08 13:39:09 43° 289° (WNW) 13:43:08 437.305
AO-7 20 Nov 13:48:00 13:53:25 20° 45° (NE) 13:58:51 29.400- 29.500
BEESAT 20 Nov 13:50:36 13:55:08 40° 98° (E) 13:59:38 436.000
Oscar 19 20 Nov 14:07:12 14:11:55 37° 263° (W) 14:16:40 437.125/150
YUBILEINY 20 Nov 14:08:54 14:17:19 49° 73° (ENE) 14:25:37 435.215
AUBIESAT-1 20 Nov 14:09:29 14:14:24 81° 108° (ESE) 14:19:18 437.475
M-CUBED/EXP-1 PRIME 20 Nov 14:10:16 14:15:12 88° 110° (ESE) 14:20:08 437.505
DANDE 20 Nov 14:16:19 14:19:22 47° 99° (E) 14:22:00 436.750
CUSAT 1 20 Nov 14:17:42 14:20:40 65° 99° (E) 14:23:17 437.405
KKS-1 20 Nov 14:21:20 14:24:21 18° 92° (E) 14:27:22 437.445
HORYU 2 20 Nov 14:34:32 14:38:42 42° 70° (ENE) 14:42:53 437.375
Gurwin Techsat 1B 20 Nov 14:41:47 14:47:05 78° 257° (WSW) 14:52:27 435.225
ITUPSAT 1 20 Nov 14:42:17 14:47:05 67° 287° (WNW) 14:51:50 437.325
ITAMSAT 1 20 Nov 14:46:12 14:51:07 41° 262° (W) 14:56:04 435.822/435.867
SO-50 20 Nov 14:46:51 14:51:39 60° 239° (WSW) 14:56:28 436.795
SWISSCUBE 20 Nov 14:55:53 15:00:29 46° 290° (WNW) 15:05:03 437.505
JAS-2 20 Nov 14:56:07 14:59:54 15° 48° (NE) 15:03:43 435.910
BEESAT 20 Nov 15:28:51 15:32:47 26° 296° (WNW) 15:36:42 436.000
STARS 20 Nov 15:29:09 15:33:31 61° 101° (ESE) 15:37:51 437.465
AO-7 20 Nov 15:36:37 15:44:50 72° 67° (ENE) 15:53:07 29.400- 29.500
RS-15 20 Nov 15:41:25 15:47:16 16° 97° (E) 15:53:05 29.354- 29.394
AUBIESAT-1 20 Nov 15:45:49 15:48:47 17° 305° (NW) 15:51:48 437.475
M-CUBED/EXP-1 PRIME 20 Nov 15:46:50 15:49:35 15° 306° (NW) 15:52:23 437.505
KKS-1 20 Nov 15:57:00 16:01:17 48° 289° (WNW) 16:05:32 437.445
YUBILEINY 20 Nov 16:06:02 16:13:57 41° 274° (W) 16:21:48 435.215
HORYU 2 20 Nov 16:12:16 16:15:34 20° 267° (W) 16:18:53 437.375
O/OREOS (USA 219) 20 Nov 16:22:25 16:26:04 24° 54° (NE) 16:29:41 437.305
Gurwin Techsat 1B 20 Nov 16:27:24 16:27:55 10° 274° (W) 16:28:26 435.225
JAS-2 20 Nov 16:35:58 16:43:15 57° 68° (ENE) 16:50:55 435.910
Cubesat XI-IV 20 Nov 16:39:41 16:43:04 17° 58° (ENE) 16:46:27 437.490
STARS 20 Nov 17:06:56 17:09:33 16° 299° (WNW) 17:12:09 437.465
CUTE-I 20 Nov 17:21:01 17:25:52 36° 66° (ENE) 17:30:42 437.470
VERMONT LUNAR 20 Nov 17:27:37 17:30:03 17° 155° (SSE) 17:32:29 437.305
AO-7 20 Nov 17:31:35 17:38:18 27° 267° (W) 17:45:07 29.400- 29.500
MaSat-1 20 Nov 17:41:12 17:44:09 40° 301° (WNW) 17:46:50 437.345
RS-15 20 Nov 17:46:35 17:57:25 71° 118° (ESE) 18:08:16 29.354- 29.394
MOZHAYETS 4 20 Nov 17:54:34 17:59:15 86° 103° (ESE) 18:03:55
O/OREOS (USA 219) 20 Nov 18:01:26 18:05:37 40° 253° (WSW) 18:09:48 437.305
GONETS M04 20 Nov 18:04:17 18:07:14 12° 49° (NE) 18:10:09
PRISM 20 Nov 18:05:37 18:08:56 22° 94° (E) 18:12:14 437.425
Cubesat XI-IV 20 Nov 18:17:09 18:22:32 78° 256° (WSW) 18:27:56 437.490
JAS-2 20 Nov 18:21:53 18:28:32 35° 268° (W) 18:35:34 435.910
PHONESAT 2.4 20 Nov 18:29:45 18:32:54 26° 162° (SSE) 18:36:03 2401.200-2431.200
HO-68 20 Nov 18:43:38 18:47:56 17° 49° (NE) 18:52:13 435.675
CUTE-I 20 Nov 19:01:05 19:05:55 34° 264° (W) 19:10:47 437.470
STRAND 1 20 Nov 19:04:09 19:08:48 34° 96° (E) 19:13:24 437.568
VERMONT LUNAR 20 Nov 19:04:39 19:08:02 36° 171° (S) 19:11:24 437.305
CUBESAT XI-V 20 Nov 19:18:56 19:23:31 49° 99° (E) 19:28:01 437.345
CUTE 1.7 & AOD 2 20 Nov 19:29:02 19:30:47 12° 60° (ENE) 19:32:33 437.475
MOZHAYETS 4 20 Nov 19:33:48 19:35:48 13° 301° (WNW) 19:37:47
BRITE-PL 20 Nov 19:36:09 19:39:31 18° 63° (ENE) 19:42:44 437.365/2234.400
GOMX 1 20 Nov 19:38:53 19:41:13 14° 61° (ENE) 19:43:28 467.674
PRISM 20 Nov 19:40:41 19:44:36 37° 291° (WNW) 19:48:30 437.425
GONETS M04 20 Nov 19:57:57 20:06:36 53° 74° (ENE) 20:15:08
RS-15 20 Nov 20:00:19 20:10:34 44° 325° (NW) 20:20:58 29.354- 29.394
DX 1 20 Nov 20:01:00 20:01:23 10° 57° (ENE) 20:01:45 434.975-435.025
Cubesat XI-IV 20 Nov 20:02:42 20:03:29 10° 274° (W) 20:04:15 437.490
SEEDS 20 Nov 20:07:39 20:11:08 26° 67° (ENE) 20:14:38 437.485
PHONESAT 2.4 20 Nov 20:07:47 20:11:19 41° 179° (S) 20:14:50 2401.200-2431.200
AIST 1 20 Nov 20:22:36 20:26:27 31° 90° (E) 20:30:20
CANX-2 20 Nov 20:26:36 20:30:41 50° 72° (ENE) 20:34:47 2200.000
HO-68 20 Nov 20:27:19 20:34:27 73° 70° (ENE) 20:41:38 435.675
SHINDAISAT 20 Nov 20:30:39 20:32:36 44° 53° (NE) 20:34:31 437.305
AAUSAT CUBESAT 2 20 Nov 20:36:03 20:39:54 38° 70° (ENE) 20:43:47 437.432
CINEMA 3 20 Nov 20:42:25 20:45:59 24° 67° (ENE) 20:49:27 145.822/145.860
VERMONT LUNAR 20 Nov 20:42:49 20:46:12 37° 188° (S) 20:49:34 437.305
STRAND 1 20 Nov 20:43:24 20:47:57 33° 294° (WNW) 20:52:28 437.568
COMPASS 1 20 Nov 20:46:56 20:51:01 57° 73° (ENE) 20:55:08 437.405
CUBEBUG 2 20 Nov 20:56:10 20:59:25 21° 66° (ENE) 21:02:37 437.445
CUBESAT XI-V 20 Nov 20:57:10 21:00:37 21° 297° (WNW) 21:04:02 437.345
FUNcube-1 20 Nov 20:58:11 21:00:52 17° 63° (ENE) 21:03:32 145.935
DOVE 4 20 Nov 20:59:07 21:03:46 56° 73° (ENE) 21:08:10 437.250
CUTE 1.7 & AOD 2 20 Nov 21:01:57 21:06:09 73° 258° (WSW) 21:10:23 437.475
UKube-1 20 Nov 21:03:13 21:07:16 39° 69° (ENE) 21:11:21 .
UWE-3 20 Nov 21:08:31 21:11:58 24° 67° (ENE) 21:15:23 435.000/436.395/437.385
DELFI C3 20 Nov 21:10:52 21:14:40 40° 71° (ENE) 21:18:31 145.870
BRITE-PL 20 Nov 21:12:28 21:17:39 64° 259° (W) 21:22:27 437.365/2234.400
GOMX 1 20 Nov 21:13:51 21:18:49 81° 257° (WSW) 21:23:28 467.674
50 SAT 20 Nov 21:17:34 21:19:35 14° 62° (ENE) 21:21:36 437.505
Oscar 11 20 Nov 21:18:53 21:23:06 59° 73° (ENE) 21:27:21 145.826/435.025
DX 1 20 Nov 21:32:29 21:36:52 82° 75° (ENE) 21:41:17 434.975-435.025
PCSat 20 Nov 21:35:50 21:41:11 69° 118° (ESE) 21:46:36 145.827
VELOX 1 20 Nov 21:36:59 21:40:53 30° 67° (ENE) 21:44:47 145.980
SEEDS 20 Nov 21:43:12 21:46:53 30° 264° (W) 21:50:36 437.485
PHONESAT 2.4 20 Nov 21:46:29 21:49:45 29° 196° (SSW) 21:53:00 2401.200-2431.200
GONETS M04 20 Nov 21:55:16 22:03:07 38° 275° (W) 22:10:55
ZACube-1 20 Nov 21:55:53 22:00:06 65° 74° (ENE) 22:04:16 437.345
AISAT 20 Nov 21:59:00 22:03:21 50° 71° (ENE) 22:07:41 437.250
AIST 1 20 Nov 22:00:27 22:04:07 26° 288° (WNW) 22:07:50
CANX-2 20 Nov 22:04:24 22:06:56 16° 269° (W) 22:09:29 2200.000
AAUSAT CUBESAT 2 20 Nov 22:12:42 22:15:45 20° 267° (W) 22:18:49 437.432
UNISAT 6 20 Nov 22:15:50 22:17:49 13° 90° (E) 22:19:49 437.425
HO-68 20 Nov 22:17:18 22:22:48 23° 269° (W) 22:28:20 435.675
RS-15 20 Nov 22:17:50 22:26:44 27° 359° (N) 22:35:48 29.354- 29.394
BEESAT 3 20 Nov 22:18:35 22:22:39 65° 122° (ESE) 22:26:47 437.485
CINEMA 3 20 Nov 22:18:55 22:23:04 36° 263° (W) 22:27:04 145.822/145.860
VERMONT LUNAR 20 Nov 22:21:42 22:24:11 17° 205° (SSW) 22:26:39 437.305
HUMSAT D 20 Nov 22:22:55 22:27:04 79° 75° (ENE) 22:31:13 437.325/437.525
COMPASS 1 20 Nov 22:25:02 22:27:08 14° 270° (W) 22:29:15 437.405
BEESAT 2 20 Nov 22:29:09 22:33:16 75° 123° (ESE) 22:37:28 435.950
POLYITAN 1 20 Nov 22:31:20 22:33:08 12° 89° (E) 22:34:55 437.675
CUBEBUG 2 20 Nov 22:31:51 22:35:55 39° 262° (W) 22:39:55 437.445
FUNcube-1 20 Nov 22:32:44 22:36:53 51° 260° (W) 22:40:59 145.935
CUBEBUG 1 20 Nov 22:34:00 22:38:10 41° 70° (ENE) 22:42:22 437.445
QB50P2 20 Nov 22:35:26 22:37:39 14° 90° (E) 22:39:51 145.880/145.840
AIST 2 20 Nov 22:37:57 22:42:01 47° 119° (ESE) 22:46:09 435.215
DOVE 4 20 Nov 22:38:52 22:41:50 16° 268° (W) 22:44:43 437.250
UKube-1 20 Nov 22:40:16 22:43:35 21° 266° (W) 22:46:56 .
ANTELSAT 20 Nov 22:42:33 22:46:09 24° 95° (E) 22:49:48 437.575/2403.000
UWE-3 20 Nov 22:44:31 22:48:24 33° 263° (W) 22:52:14 435.000/436.395/437.385
DUCHIFAT 1 20 Nov 22:44:51 22:47:39 17° 92° (E) 22:50:27 145.980
DELFI C3 20 Nov 22:47:20 22:50:10 18° 268° (W) 22:53:02 145.870
SPROUT 20 Nov 22:47:39 22:50:00 15° 61° (ENE) 22:52:20 437.525
50 SAT 20 Nov 22:50:27 22:54:28 60° 259° (W) 22:58:29 437.505
ESTCUBE 1 20 Nov 22:50:34 22:55:03 64° 73° (ENE) 22:59:35 437.505/2401.250
TISAT 1 20 Nov 22:55:08 22:58:11 19° 64° (ENE) 23:01:15 437.305
Oscar 11 20 Nov 22:57:26 22:59:40 14° 270° (W) 23:01:55 145.826/435.025
NANOSAT C BR1 20 Nov 23:02:41 23:06:16 26° 95° (E) 23:09:50 145.865
QB50P1 20 Nov 23:11:35 23:15:25 33° 97° (E) 23:19:14 145.935-145.965
DX 1 20 Nov 23:13:03 23:13:42 10° 272° (W) 23:14:20 434.975-435.025
VELOX 1 20 Nov 23:13:30 23:17:26 30° 264° (W) 23:21:23 145.980
PCSat 20 Nov 23:20:45 23:25:07 24° 318° (NW) 23:29:30 145.827
PHONESAT 2.4 20 Nov 23:27:05 23:27:51 11° 211° (SSW) 23:28:36 2401.200-2431.200
AUBIESAT-1 20 Nov 23:28:09 23:30:46 17° 55° (NE) 23:33:32 437.475
M-CUBED/EXP-1 PRIME 20 Nov 23:29:03 23:31:50 18° 56° (NE) 23:34:48 437.505
ZACube-1 20 Nov 23:35:11 23:36:55 12° 271° (W) 23:38:38 437.345
POPSAT HIP 1 20 Nov 23:35:21 23:39:32 60° 101° (E) 23:43:42 437.405
AISAT 20 Nov 23:37:13 23:40:16 18° 268° (W) 23:43:19 437.250
TIGRISAT 20 Nov 23:40:18 23:44:41 87° 284° (WNW) 23:49:07 435.000
UNISAT 6 20 Nov 23:50:43 23:55:03 67° 286° (WNW) 23:59:29 437.425
BUGSAT 1 20 Nov 23:52:30 23:56:39 77° 103° (ESE) 00:00:43 437.445
BEESAT 3 20 Nov 23:58:15 00:01:18 19° 321° (NW) 00:04:22 437.485
POLYITAN 1 21 Nov 00:05:20 00:09:32 64° 286° (WNW) 00:13:42 437.675
BEESAT 2 21 Nov 00:09:12 00:12:05 18° 323° (NW) 00:14:59 435.950
QB50P2 21 Nov 00:09:47 00:13:57 57° 287° (WNW) 00:18:05 145.880/145.840
CUBEBUG 1 21 Nov 00:11:20 00:14:43 21° 267° (W) 00:18:07 437.445
ITUPSAT 1 21 Nov 00:14:38 00:18:21 23° 63° (ENE) 00:22:05 437.325
AIST 2 21 Nov 00:17:21 00:20:53 25° 318° (NW) 00:24:27 435.215
ANTELSAT 21 Nov 00:19:04 00:23:02 35° 291° (WNW) 00:27:04 437.575/2403.000
DUCHIFAT 1 21 Nov 00:19:45 00:23:47 45° 289° (WNW) 00:27:48 145.980
SPROUT 21 Nov 00:21:17 00:25:35 65° 259° (WSW) 00:29:54 437.525
SWISSCUBE 21 Nov 00:27:16 00:31:29 32° 66° (ENE) 00:35:44 437.505
TISAT 1 21 Nov 00:29:38 00:33:44 44° 261° (W) 00:37:51 437.305
ESTCUBE 1 21 Nov 00:29:54 00:32:22 14° 270° (W) 00:34:51 437.505/2401.250
RS-15 21 Nov 00:32:50 00:43:07 41° 32° (NNE) 00:53:44 29.354- 29.394
NANOSAT C BR1 21 Nov 00:38:28 00:42:09 29° 292° (WNW) 00:45:49 145.865
QB50P1 21 Nov 00:47:46 00:51:11 24° 294° (WNW) 00:54:35 145.935-145.965
CUSAT 1 21 Nov 00:52:17 00:56:09 61° 79° (E) 01:01:22 437.405
DANDE 21 Nov 00:53:11 00:56:51 51° 78° (ENE) 01:01:45 436.750
BEESAT 21 Nov 00:59:03 01:03:44 58° 72° (ENE) 01:08:28 436.000
AUBIESAT-1 21 Nov 01:01:29 01:05:18 55° 255° (WSW) 01:09:31 437.475
M-CUBED/EXP-1 PRIME 21 Nov 01:02:45 01:06:30 48° 256° (WSW) 01:10:39 437.505
POPSAT HIP 1 21 Nov 01:12:38 01:14:59 15° 298° (WNW) 01:17:20 437.405
TIGRISAT 21 Nov 01:20:03 01:20:46 10° 302° (WNW) 01:21:28 435.000
KKS-1 21 Nov 01:21:43 01:25:08 22° 64° (ENE) 01:28:34 437.445
BUGSAT 1 21 Nov 01:30:12 01:31:32 11° 301° (WNW) 01:32:52 437.445
ISS 21 Nov 01:35:47 01:38:23 22° 137° (SE) 01:41:00 145.825
MaSat-1 21 Nov 01:44:43 01:46:41 23° 56° (ENE) 01:48:39 437.345
ITUPSAT 1 21 Nov 01:51:20 01:55:57 46° 261° (W) 02:00:37 437.325
SWISSCUBE 21 Nov 02:05:02 02:09:18 32° 264° (W) 02:13:37 437.505
Oscar 19 21 Nov 02:16:10 02:21:18 66° 102° (ESE) 02:26:26 437.125/150
STARS 21 Nov 02:28:13 02:32:37 69° 74° (ENE) 02:37:01 437.465
CUSAT 1 21 Nov 02:37:17 02:39:12 13° 268° (W) 02:41:20 437.405
DANDE 21 Nov 02:38:09 02:40:17 14° 267° (W) 02:42:43 436.750
BEESAT 21 Nov 02:38:50 02:41:58 17° 269° (W) 02:45:07 436.000
RS-15 21 Nov 02:45:28 02:56:40 81° 239° (WSW) 03:08:22 29.354- 29.394
Gurwin Techsat 1B 21 Nov 02:56:14 03:01:08 36° 97° (E) 03:05:59 435.225
ITAMSAT 1 21 Nov 02:56:42 03:01:51 61° 102° (ESE) 03:06:58 435.822/435.867
KKS-1 21 Nov 02:57:19 03:01:32 41° 261° (W) 03:05:47 437.445
ISS 21 Nov 03:11:33 03:14:49 61° 334° (NNW) 03:18:05 145.825
YUBILEINY 21 Nov 03:12:00 03:20:24 52° 89° (E) 03:28:48 435.215
MOZHAYETS 4 21 Nov 03:24:26 03:26:28 13° 59° (ENE) 03:28:31
AO-7 21 Nov 03:37:18 03:43:04 20° 90° (E) 03:48:47 29.400- 29.500
Oscar 19 21 Nov 03:56:39 04:00:08 19° 300° (WNW) 04:03:38 437.125/150
HORYU 2 21 Nov 04:00:28 04:04:57 67° 102° (ESE) 04:09:25 437.375
STARS 21 Nov 04:07:41 04:09:34 13° 271° (W) 04:11:28 437.465
Gurwin Techsat 1B 21 Nov 04:36:20 04:41:02 33° 294° (WNW) 04:45:43 435.225
ITAMSAT 1 21 Nov 04:37:10 04:40:53 20° 300° (WNW) 04:44:35 435.822/435.867
PCSat 21 Nov 04:39:18 04:43:04 19° 37° (NE) 04:46:48 145.827
ISS 21 Nov 04:49:05 04:51:55 26° 354° (N) 04:54:45 145.825
MOZHAYETS 4 21 Nov 04:58:27 05:03:02 82° 257° (WSW) 05:07:41
PRISM 21 Nov 04:58:46 05:02:02 22° 65° (ENE) 05:05:19 437.425
RS-15 21 Nov 04:59:41 05:07:19 21° 260° (W) 05:15:10 29.354- 29.394
BEESAT 3 21 Nov 04:59:51 05:02:07 14° 34° (NNE) 05:04:24 437.485
SO-50 21 Nov 05:04:00 05:07:50 28° 114° (ESE) 05:11:46 436.795
YUBILEINY 21 Nov 05:09:23 05:17:27 39° 291° (WNW) 05:25:33 435.215
BEESAT 2 21 Nov 05:10:32 05:13:07 16° 35° (NE) 05:15:41 435.950
AIST 2 21 Nov 05:21:00 05:22:54 13° 31° (NNE) 05:24:47 435.215
AO-7 21 Nov 05:28:30 05:36:55 89° 109° (ESE) 05:45:18 29.400- 29.500
JAS-2 21 Nov 05:29:21 05:36:20 42° 95° (E) 05:42:33 435.910
CUTE-I 21 Nov 05:38:35 05:40:01 11° 86° (E) 05:41:26 437.470
HORYU 2 21 Nov 05:38:35 05:41:07 15° 300° (WNW) 05:43:39 437.375
STRAND 1 21 Nov 06:21:48 06:26:52 60° 71° (ENE) 06:31:57 437.568
PCSat 21 Nov 06:21:52 06:27:20 83° 58° (ENE) 06:32:45 145.827
CUBESAT XI-V 21 Nov 06:24:11 06:28:50 60° 73° (ENE) 06:33:30 437.345
ISS 21 Nov 06:26:11 06:29:12 31° 14° (NNE) 06:32:13 145.825
AIST 1 21 Nov 06:30:04 06:30:58 11° 64° (ENE) 06:31:53
Cubesat XI-IV 21 Nov 06:32:48 06:37:42 36° 97° (E) 06:42:34 437.490
PRISM 21 Nov 06:33:31 06:37:23 36° 262° (W) 06:41:19 437.425
BEESAT 3 21 Nov 06:36:53 06:41:06 76° 54° (NE) 06:45:16 437.485
O/OREOS (USA 219) 21 Nov 06:37:46 06:40:43 17° 100° (E) 06:43:39 437.305
SO-50 21 Nov 06:43:54 06:48:13 41° 314° (NW) 06:52:40 436.795
BEESAT 2 21 Nov 06:47:49 06:52:04 87° 55° (NE) 06:56:15 435.950
AIST 2 21 Nov 06:58:10 07:02:27 59° 52° (NE) 07:06:40 435.215
GONETS M04 21 Nov 07:14:09 07:14:54 10° 69° (ENE) 07:15:38
JAS-2 21 Nov 07:14:25 07:21:19 42° 296° (WNW) 07:27:33 435.910
CUTE-I 21 Nov 07:15:32 07:20:54 83° 104° (ESE) 07:26:13 437.470
AO-7 21 Nov 07:22:22 07:28:43 25° 310° (NW) 07:35:05 29.400- 29.500
HO-68 21 Nov 07:57:12 07:58:27 10° 84° (E) 07:59:41 435.675
ISS 21 Nov 08:02:46 08:06:04 68° 213° (SSW) 08:09:21 145.825
STRAND 1 21 Nov 08:02:55 08:06:27 19° 269° (W) 08:10:01 437.568
CUBESAT XI-V 21 Nov 08:03:46 08:06:40 16° 270° (W) 08:09:36 437.345
AIST 1 21 Nov 08:04:53 08:09:19 84° 263° (W) 08:13:41
PCSat 21 Nov 08:06:59 08:10:01 15° 256° (WSW) 08:13:03 145.827
Cubesat XI-IV 21 Nov 08:13:00 08:17:44 33° 295° (WNW) 08:22:26 437.490
O/OREOS (USA 219) 21 Nov 08:15:18 08:19:42 52° 298° (WNW) 08:24:05 437.305
BEESAT 3 21 Nov 08:17:01 08:18:44 12° 251° (WSW) 08:20:27 437.485
SO-50 21 Nov 08:28:33 08:30:04 11° 336° (NNW) 08:31:36 436.795
BEESAT 2 21 Nov 08:28:55 08:29:40 10° 253° (WSW) 08:30:25 435.950
AIST 2 21 Nov 08:37:55 08:40:39 17° 249° (WSW) 08:43:21 435.215
CUTE 1.7 & AOD 2 21 Nov 08:46:37 08:49:27 17° 91° (E) 08:52:16 437.475
CUTE-I 21 Nov 08:57:09 09:00:17 16° 303° (WNW) 09:03:23 437.470
DOVE 4 21 Nov 08:58:54 08:59:57 11° 89° (E) 09:00:59 437.250
GONETS M04 21 Nov 09:01:05 09:09:34 57° 90° (E) 09:18:08
TIGRISAT 21 Nov 09:07:48 09:09:26 12° 60° (ENE) 09:11:03 435.000
GOMX 1 21 Nov 09:14:37 09:17:53 22° 94° (E) 09:21:07 467.674
BRITE-PL 21 Nov 09:15:57 09:19:41 31° 96° (E) 09:23:21 437.365/2234.400
UNISAT 6 21 Nov 09:17:26 09:19:56 15° 62° (ENE) 09:22:26 437.425
DX 1 21 Nov 09:21:15 09:22:57 12° 89° (E) 09:24:38 434.975-435.025
SEEDS 21 Nov 09:25:37 09:29:36 38° 97° (E) 09:33:34 437.485
POLYITAN 1 21 Nov 09:27:07 09:29:21 14° 61° (ENE) 09:31:35 437.675
QB50P2 21 Nov 09:31:03 09:33:32 15° 62° (ENE) 09:36:02 145.880/145.840
DUCHIFAT 1 21 Nov 09:40:05 09:43:01 18° 64° (ENE) 09:45:57 145.980
HO-68 21 Nov 09:40:24 09:47:33 63° 103° (ESE) 09:54:38 435.675
ANTELSAT 21 Nov 09:44:11 09:47:49 27° 67° (ENE) 09:51:26 437.575/2403.000
ZACube-1 21 Nov 09:45:48 09:46:20 10° 88° (E) 09:46:51 437.345
CANX-2 21 Nov 09:45:58 09:50:16 79° 103° (ESE) 09:54:33 2200.000
AAUSAT CUBESAT 2 21 Nov 09:53:07 09:57:17 57° 100° (E) 10:01:27 437.432
NANOSAT C BR1 21 Nov 09:57:48 10:01:24 27° 67° (ENE) 10:05:00 145.865
COMPASS 1 21 Nov 10:04:39 10:08:55 86° 103° (ESE) 10:13:10 437.405
QB50P1 21 Nov 10:06:40 10:10:30 33° 69° (ENE) 10:14:20 145.935-145.965
HUMSAT D 21 Nov 10:08:08 10:09:19 11° 89° (E) 10:10:30 437.325/437.525
CINEMA 3 21 Nov 10:11:37 10:15:35 41° 98° (E) 10:19:37 145.822/145.860
FUNcube-1 21 Nov 10:19:49 10:23:17 24° 95° (E) 10:26:46 145.935
CUBEBUG 2 21 Nov 10:21:01 10:24:51 34° 97° (E) 10:28:43 437.445
CUTE 1.7 & AOD 2 21 Nov 10:21:31 10:25:38 47° 288° (WNW) 10:29:45 437.475
DELFI C3 21 Nov 10:24:54 10:28:58 55° 100° (E) 10:33:01 145.870
UKube-1 21 Nov 10:25:04 10:29:21 55° 101° (E) 10:33:36 .
POPSAT HIP 1 21 Nov 10:30:18 10:34:30 59° 73° (ENE) 10:38:42 437.405
50 SAT 21 Nov 10:30:45 10:33:20 16° 92° (E) 10:35:56 437.505
UWE-3 21 Nov 10:32:16 10:36:12 38° 98° (E) 10:40:11 435.000/436.395/437.385
DOVE 4 21 Nov 10:34:06 10:38:14 68° 286° (WNW) 10:42:23 437.250
Oscar 11 21 Nov 10:40:23 10:44:45 87° 284° (WNW) 10:49:06 145.826/435.025
TIGRISAT 21 Nov 10:41:19 10:45:36 77° 257° (WSW) 10:49:53 435.000
ESTCUBE 1 21 Nov 10:43:52 10:45:30 12° 88° (E) 10:47:07 437.505/2401.250
BUGSAT 1 21 Nov 10:44:29 10:48:44 71° 74° (ENE) 10:52:59 437.445
UNISAT 6 21 Nov 10:52:04 10:56:18 58° 259° (W) 11:00:32 437.425
GOMX 1 21 Nov 10:52:23 10:56:08 33° 291° (WNW) 10:59:51 467.674
BRITE-PL 21 Nov 10:54:45 10:58:07 24° 294° (WNW) 11:01:26 437.365/2234.400
DX 1 21 Nov 10:55:20 10:59:41 70° 286° (WNW) 11:04:00 434.975-435.025
GONETS M04 21 Nov 10:58:53 11:06:47 36° 292° (WNW) 11:14:47
POLYITAN 1 21 Nov 11:00:34 11:04:49 65° 258° (WSW) 11:09:04 437.675
SEEDS 21 Nov 11:01:57 11:05:14 22° 294° (WNW) 11:08:30 437.485
VELOX 1 21 Nov 11:02:00 11:06:16 44° 99° (E) 11:10:29 145.980
QB50P2 21 Nov 11:04:48 11:09:01 58° 259° (W) 11:13:15 145.880/145.840
DUCHIFAT 1 21 Nov 11:14:27 11:18:34 47° 261° (W) 11:22:42 145.980
ZACube-1 21 Nov 11:19:02 11:23:13 76° 285° (WNW) 11:27:28 437.345
ANTELSAT 21 Nov 11:20:50 11:24:35 29° 264° (W) 11:28:19 437.575/2403.000
CANX-2 21 Nov 11:24:02 11:25:36 12° 300° (WNW) 11:27:10 2200.000
AISAT 21 Nov 11:24:50 11:29:18 79° 103° (ESE) 11:33:43 437.250
HO-68 21 Nov 11:28:48 11:34:48 30° 302° (WNW) 11:40:46 435.675
AAUSAT CUBESAT 2 21 Nov 11:30:04 11:32:32 15° 298° (WNW) 11:35:01 437.432
NANOSAT C BR1 21 Nov 11:33:28 11:37:13 30° 264° (W) 11:40:59 145.865
HUMSAT D 21 Nov 11:41:29 11:45:37 69° 285° (WNW) 11:49:45 437.325/437.525
COMPASS 1 21 Nov 11:42:57 11:44:00 11° 301° (WNW) 11:45:02 437.405
QB50P1 21 Nov 11:42:58 11:46:27 24° 266° (W) 11:49:57 145.935-145.965
CINEMA 3 21 Nov 11:49:37 11:52:34 19° 295° (WNW) 11:55:33 145.822/145.860
SO-50 21 Nov 11:53:41 11:55:53 13° 27° (NNE) 11:58:05 436.795
FUNcube-1 21 Nov 11:55:58 11:59:41 31° 291° (WNW) 12:03:25 145.935
CUBEBUG 1 21 Nov 11:57:22 12:01:44 64° 101° (ESE) 12:06:03 437.445
CUBEBUG 2 21 Nov 11:58:07 12:01:26 23° 294° (WNW) 12:04:47 437.445
Oscar 19 21 Nov 11:58:12 12:01:26 17° 59° (ENE) 12:04:40 437.125/150
DELFI C3 21 Nov 12:01:27 12:03:52 15° 297° (WNW) 12:06:17 145.870
UKube-1 21 Nov 12:02:20 12:05:06 17° 298° (WNW) 12:07:51 .
50 SAT 21 Nov 12:05:03 12:08:55 44° 288° (WNW) 12:12:46 437.505
SPROUT 21 Nov 12:07:11 12:10:17 19° 92° (E) 12:13:21 437.525
POPSAT HIP 1 21 Nov 12:08:34 12:10:47 14° 270° (W) 12:13:01 437.405
UWE-3 21 Nov 12:09:25 12:12:33 21° 295° (WNW) 12:15:42 435.000/436.395/437.385
TISAT 1 21 Nov 12:13:18 12:16:47 25° 95° (E) 12:20:14 437.305
ESTCUBE 1 21 Nov 12:18:22 12:22:56 77° 285° (WNW) 12:27:28 437.505/2401.250
Oscar 11 21 Nov 12:19:26 12:20:13 10° 302° (WNW) 12:21:00 145.826/435.025
BUGSAT 1 21 Nov 12:23:14 12:24:43 12° 271° (W) 12:26:11 437.445
SHINDAISAT 21 Nov 12:28:49 12:30:40 40° 308° (NW) 12:32:33 437.305
VELOX 1 21 Nov 12:39:17 12:42:34 21° 297° (WNW) 12:45:50 145.980
ITAMSAT 1 21 Nov 12:39:41 12:43:00 17° 59° (ENE) 12:46:19 435.822/435.867
Gurwin Techsat 1B 21 Nov 12:44:00 12:45:27 11° 54° (NE) 12:46:54 435.225
AUBIESAT-1 21 Nov 12:44:06 12:45:56 12° 93° (E) 12:47:46 437.475
M-CUBED/EXP-1 PRIME 21 Nov 12:45:08 12:47:34 14° 94° (E) 12:50:00 437.505
BEESAT 21 Nov 12:59:28 13:01:36 13° 89° (E) 13:03:43 436.000
AISAT 21 Nov 13:03:23 13:05:19 13° 301° (WNW) 13:07:15 437.250
